Accueil
METAR-TAF:

METAR-TAF

Aéroports :

Morrisville-Stowe State Airport

Morrisville, Vermont, États-Unis

latitude: 44-32-10N, longitude: 072-36-58W, altitude: 223 m

Observation

Le bulletin a été fait il y a 40 minutes, à 06:54 UTC
Vent 16 kt de sud avec des rafales jusqu'à 24 kt
Température 19°C
Humidité 88%
Pression 1008 hPa
Visibilité: 16.1 km
Nuages fragmentés à une hauteur de 2900 ft
Ciel couvert à une hauteur de 4000 ft

METAR: KMVL 220654Z AUTO 19016G24KT 10SM BKN029 OVC040 19/17 A2977 RMK AO2 SLP077 T01940167

Heure: 03:34 (07:34 UTC)


TAF: absent

Observations et prévisions météorologiques de plus de 4000 aéroports (messages METAR et TAF).

Les stations disponibles sont représentées par des disques jaunes et rouges sur la carte.

Passer la souris dessus pour voir le nom de la station.

Cliquer dessus pour voir les observations et prévisions météorologiques.

Pour changer de carte: cliquez sur les boutons verts avec une croix noire pour zoomer, sur le bouton vert avec un tiret pour effectuer un zoom arrière, ou sur les flèches vertes pour les cartes adjacentes.


METAR-TAF: